| time (UTC) | temp F | wind direction | speed MPH | gust MPH | rain 1hr in | rain 24hr in | rain mn in | humidity % | barometer mb |
| 20260508090211 | 42 | 146 | 3.0 | 6.0 | 0.00 | 0.03 | 0.00 | 80 | 1005.6 |
| 20260508085212 | 42 | 146 | 2.0 | 4.0 | 0.00 | 0.03 | 0.00 | 79 | 1005.7 |
| 20260508084221 | 42 | 146 | 0.0 | 3.0 | 0.00 | 0.03 | 0.00 | 77 | 1005.9 |
| 20260508083228 | 43 | 146 | 3.0 | 4.0 | 0.00 | 0.03 | 0.00 | 76 | 1005.9 |
| 20260508082213 | 44 | 146 | 0.0 | 0.0 | 0.00 | 0.03 | 0.00 | 75 | 1006.2 |
| 20260508081242 | 44 | 146 | 0.0 | 0.0 | 0.00 | 0.03 | 0.00 | 75 | 1005.9 |
| 20260508080245 | 44 | 146 | 0.0 | 4.0 | 0.00 | 0.03 | 0.00 | 74 | 1005.9 |
| 20260508075214 | 45 | 146 | 3.0 | 6.0 | 0.00 | 0.03 | 0.00 | 75 | 1006.0 |
| 20260508074218 | 45 | 136 | 5.0 | 7.0 | 0.00 | 0.03 | 0.00 | 73 | 1006.5 |
| 20260508073218 | 46 | 95 | 1.0 | 3.0 | 0.00 | 0.03 | 0.00 | 72 | 1006.5 |
| 20260508072222 | 46 | 95 | 0.0 | 0.0 | 0.00 | 0.03 | 0.00 | 70 | 1006.6 |
| 20260508071229 | 46 | 95 | 0.0 | 5.0 | 0.00 | 0.03 | 0.00 | 70 | 1006.3 |
| 20260508070212 | 48 | 95 | 2.0 | 5.0 | 0.00 | 0.03 | 0.00 | 66 | 1006.3 |
| 20260508065222 | 48 | 93 | 2.0 | 3.0 | 0.00 | 0.03 | 0.00 | 65 | 1006.3 |
| 20260508064230 | 49 | 93 | 0.0 | 3.0 | 0.00 | 0.03 | 0.00 | 63 | 1006.3 |
| 20260508063214 | 49 | 93 | 2.0 | 5.0 | 0.00 | 0.03 | 0.00 | 62 | 1006.3 |
| 20260508062219 | 49 | 93 | 2.0 | 5.0 | 0.00 | 0.03 | 0.00 | 62 | 1006.6 |
| 20260508061222 | 50 | 93 | 0.0 | 5.0 | 0.00 | 0.03 | 0.00 | 61 | 1006.1 |
| 20260508060215 | 50 | 93 | 0.0 | 6.0 | 0.00 | 0.03 | 0.00 | 59 | 1006.1 |
| 20260508055221 | 51 | 92 | 2.0 | 7.0 | 0.00 | 0.03 | 0.03 | 57 | 1006.2 |
| 20260508054229 | 52 | 74 | 3.0 | 10.0 | 0.00 | 0.03 | 0.03 | 56 | 1005.9 |
| 20260508053212 | 52 | 65 | 2.0 | 7.0 | 0.00 | 0.03 | 0.03 | 54 | 1005.9 |
| 20260508052231 | 53 | 56 | 2.0 | 9.0 | 0.00 | 0.03 | 0.03 | 52 | 1005.7 |
| 20260508051219 | 53 | 67 | 3.0 | 9.0 | 0.00 | 0.03 | 0.03 | 49 | 1006.0 |
| 20260508050224 | 53 | 33 | 2.0 | 6.0 | 0.00 | 0.03 | 0.03 | 50 | 1006.0 |
| 20260508045210 | 53 | 60 | 0.0 | 4.0 | 0.00 | 0.03 | 0.03 | 50 | 1005.5 |
| 20260508044240 | 53 | 21 | 2.0 | 3.0 | 0.00 | 0.03 | 0.03 | 49 | 1005.2 |
| 20260508043249 | 54 | 21 | 0.0 | 1.0 | 0.00 | 0.03 | 0.03 | 49 | 1005.2 |
| 20260508042215 | 54 | 21 | 0.0 | 3.0 | 0.00 | 0.03 | 0.03 | 46 | 1005.1 |
| 20260508041218 | 55 | 21 | 0.0 | 3.0 | 0.00 | 0.03 | 0.03 | 46 | 1005.4 |
| 20260508040226 | 55 | 21 | 2.0 | 3.0 | 0.00 | 0.03 | 0.03 | 45 | 1005.4 |
| 20260508035213 | 56 | 21 | 0.0 | 3.0 | 0.00 | 0.03 | 0.03 | 41 | 1005.3 |
| 20260508034233 | 56 | 20 | 1.0 | 2.0 | 0.00 | 0.03 | 0.03 | 40 | 1005.3 |
| 20260508033221 | 57 | 20 | 0.0 | 2.0 | 0.00 | 0.03 | 0.03 | 38 | 1005.3 |
| 20260508032234 | 57 | 20 | 3.0 | 4.0 | 0.00 | 0.03 | 0.03 | 39 | 1005.1 |
| 20260508031215 | 58 | 20 | 1.0 | 5.0 | 0.00 | 0.03 | 0.03 | 36 | 1005.0 |
| 20260508030217 | 59 | 16 | 1.0 | 6.0 | 0.00 | 0.03 | 0.03 | 35 | 1005.0 |
| 20260508025227 | 59 | 350 | 3.0 | 8.0 | 0.00 | 0.03 | 0.03 | 31 | 1005.2 |
| 20260508024233 | 60 | 360 | 4.0 | 12.0 | 0.00 | 0.03 | 0.03 | 30 | 1004.7 |
| 20260508023229 | 60 | 19 | 6.0 | 10.0 | 0.00 | 0.03 | 0.03 | 29 | 1004.7 |
| 20260508022238 | 61 | 299 | 6.0 | 10.0 | 0.00 | 0.03 | 0.03 | 28 | 1004.4 |
| 20260508021226 | 61 | 319 | 4.0 | 10.0 | 0.00 | 0.03 | 0.03 | 28 | 1004.3 |
| 20260508020244 | 60 | 300 | 2.0 | 5.0 | 0.00 | 0.03 | 0.03 | 28 | 1004.3 |
| 20260508015229 | 60 | 296 | 3.0 | 6.0 | 0.00 | 0.04 | 0.03 | 29 | 1003.9 |
| 20260508014219 | 60 | 207 | 0.0 | 1.0 | 0.00 | 0.04 | 0.03 | 30 | 1003.6 |
| 20260508013222 | 61 | 209 | 0.0 | 2.0 | 0.00 | 0.04 | 0.03 | 28 | 1003.6 |
| 20260508012226 | 61 | 207 | 3.0 | 6.0 | 0.00 | 0.04 | 0.03 | 31 | 1003.5 |
| 20260508011216 | 61 | 243 | 3.0 | 6.0 | 0.00 | 0.04 | 0.03 | 31 | 1003.3 |
| 20260508010220 | 62 | 172 | 2.0 | 3.0 | 0.00 | 0.04 | 0.03 | 35 | 1003.3 |
| 20260508005221 | 63 | 172 | 2.0 | 2.0 | 0.00 | 0.05 | 0.03 | 24 | 1003.2 |
| 20260508004252 | 63 | 171 | 1.0 | 2.0 | 0.00 | 0.05 | 0.03 | 26 | 1003.3 |
| 20260508003222 | 63 | 172 | 0.0 | 2.0 | 0.00 | 0.05 | 0.03 | 24 | 1003.3 |
| 20260508002229 | 63 | 172 | 2.0 | 4.0 | 0.00 | 0.05 | 0.03 | 25 | 1003.2 |
| 20260508001237 | 63 | 165 | 2.0 | 6.0 | 0.00 | 0.05 | 0.03 | 28 | 1003.3 |
| 20260508000223 | 64 | 160 | 5.0 | 7.0 | 0.00 | 0.05 | 0.03 | 23 | 1003.3 |
| 20260507235213 | 65 | 310 | 0.0 | 4.0 | 0.00 | 0.12 | 0.03 | 21 | 1003.3 |
| 20260507234244 | 66 | 311 | 2.0 | 5.0 | 0.00 | 0.12 | 0.03 | 22 | 1003.5 |
| 20260507233212 | 68 | 311 | 3.0 | 7.0 | 0.00 | 0.12 | 0.03 | 21 | 1003.5 |
| 20260507232227 | 67 | 271 | 3.0 | 8.0 | 0.00 | 0.12 | 0.03 | 23 | 1003.7 |
| 20260507231222 | 67 | 308 | 4.0 | 11.0 | 0.00 | 0.12 | 0.03 | 22 | 1003.7 |
| 20260507230229 | 67 | 314 | 5.0 | 9.0 | 0.00 | 0.12 | 0.03 | 20 | 1003.7 |
| 20260507225233 | 66 | 275 | 5.0 | 8.0 | 0.00 | 0.21 | 0.03 | 20 | 1003.7 |
| 20260507224218 | 66 | 229 | 1.0 | 8.0 | 0.00 | 0.21 | 0.03 | 22 | 1003.7 |
| 20260507223226 | 65 | 200 | 4.0 | 6.0 | 0.00 | 0.21 | 0.03 | 24 | 1003.7 |
| 20260507222231 | 65 | 263 | 1.0 | 6.0 | 0.00 | 0.21 | 0.03 | 23 | 1003.9 |
| 20260507221213 | 65 | 261 | 3.0 | 6.0 | 0.00 | 0.21 | 0.03 | 24 | 1004.3 |
| 20260507220216 | 67 | 279 | 3.0 | 10.0 | 0.00 | 0.21 | 0.03 | 23 | 1004.3 |
| 20260507215226 | 66 | 275 | 2.0 | 8.0 | 0.00 | 0.27 | 0.03 | 23 | 1004.3 |
| 20260507214227 | 67 | 246 | 5.0 | 9.0 | 0.00 | 0.27 | 0.03 | 25 | 1004.7 |
| 20260507213213 | 67 | 268 | 3.0 | 11.0 | 0.00 | 0.27 | 0.03 | 23 | 1004.7 |
| 20260507212216 | 67 | 293 | 7.0 | 10.0 | 0.00 | 0.27 | 0.03 | 23 | 1004.7 |
| 20260507211218 | 68 | 292 | 7.0 | 12.0 | 0.00 | 0.27 | 0.03 | 25 | 1004.9 |
| 20260507210225 | 67 | 264 | 5.0 | 10.0 | 0.00 | 0.27 | 0.03 | 25 | 1004.9 |
| 20260507205214 | 66 | 360 | 6.0 | 10.0 | 0.00 | 0.33 | 0.03 | 24 | 1004.9 |
| 20260507204220 | 66 | 264 | 3.0 | 12.0 | 0.00 | 0.33 | 0.03 | 25 | 1005.0 |
| 20260507203220 | 67 | 210 | 3.0 | 9.0 | 0.00 | 0.33 | 0.03 | 26 | 1005.0 |
| 20260507202225 | 66 | 290 | 3.0 | 12.0 | 0.00 | 0.33 | 0.03 | 27 | 1005.4 |
| 20260507201214 | 66 | 292 | 7.0 | 11.0 | 0.00 | 0.33 | 0.03 | 28 | 1005.6 |
| 20260507200215 | 65 | 272 | 4.0 | 8.0 | 0.00 | 0.33 | 0.03 | 27 | 1005.6 |
| 20260507195218 | 64 | 290 | 4.0 | 9.0 | 0.00 | 0.42 | 0.03 | 29 | 1005.6 |
| 20260507194223 | 63 | 228 | 7.0 | 9.0 | 0.00 | 0.42 | 0.03 | 35 | 1006.0 |
| 20260507193223 | 62 | 248 | 6.0 | 10.0 | 0.00 | 0.42 | 0.03 | 31 | 1006.0 |
| 20260507192226 | 61 | 255 | 4.0 | 12.0 | 0.00 | 0.42 | 0.03 | 32 | 1006.1 |
| 20260507191214 | 60 | 209 | 5.0 | 12.0 | 0.00 | 0.42 | 0.03 | 37 | 1006.2 |
| 20260507190218 | 60 | 271 | 5.0 | 14.0 | 0.00 | 0.42 | 0.03 | 36 | 1006.2 |
| 20260507185221 | 59 | 237 | 4.0 | 15.0 | 0.00 | 0.45 | 0.03 | 39 | 1006.2 |
| 20260507184226 | 59 | 242 | 8.0 | 14.0 | 0.00 | 0.45 | 0.03 | 41 | 1006.3 |
| 20260507183228 | 57 | 235 | 10.0 | 17.0 | 0.00 | 0.45 | 0.03 | 44 | 1006.3 |
| 20260507182247 | 56 | 198 | 7.0 | 13.0 | 0.00 | 0.45 | 0.03 | 39 | 1006.5 |
| 20260507181249 | 55 | 219 | 8.0 | 15.0 | 0.00 | 0.45 | 0.03 | 42 | 1006.6 |
| 20260507180213 | 54 | 175 | 7.0 | 13.0 | 0.00 | 0.45 | 0.03 | 43 | 1006.6 |
| 20260507175216 | 53 | 219 | 7.0 | 12.0 | 0.00 | 0.48 | 0.03 | 41 | 1006.7 |
| 20260507174219 | 52 | 194 | 8.0 | 12.0 | 0.00 | 0.48 | 0.03 | 42 | 1006.8 |
| 20260507173228 | 52 | 187 | 7.0 | 13.0 | 0.00 | 0.48 | 0.03 | 44 | 1006.8 |
| 20260507172223 | 52 | 192 | 6.0 | 12.0 | 0.00 | 0.48 | 0.03 | 44 | 1006.8 |
| 20260507171216 | 53 | 219 | 7.0 | 13.0 | 0.00 | 0.48 | 0.03 | 41 | 1006.8 |
| 20260507170223 | 53 | 213 | 8.0 | 14.0 | 0.00 | 0.48 | 0.03 | 39 | 1006.8 |
| 20260507165224 | 52 | 202 | 9.0 | 16.0 | 0.00 | 0.49 | 0.03 | 39 | 1007.2 |
| 20260507164209 | 51 | 184 | 9.0 | 12.0 | 0.00 | 0.49 | 0.03 | 41 | 1007.4 |
| 20260507163223 | 51 | 196 | 8.0 | 13.0 | 0.00 | 0.49 | 0.03 | 41 | 1007.4 |
| 20260507162232 | 51 | 200 | 9.0 | 13.0 | 0.00 | 0.49 | 0.03 | 39 | 1007.4 |
| 20260507161213 | 50 | 180 | 8.0 | 11.0 | 0.00 | 0.49 | 0.03 | 42 | 1007.5 |
| 20260507160216 | 50 | 186 | 7.0 | 14.0 | 0.00 | 0.49 | 0.03 | 42 | 1007.5 |
| 20260507155215 | 49 | 204 | 8.0 | 13.0 | 0.01 | 0.50 | 0.03 | 41 | 1007.5 |
| 20260507154214 | 49 | 199 | 8.0 | 15.0 | 0.01 | 0.50 | 0.03 | 41 | 1007.6 |
| 20260507153236 | 48 | 188 | 7.0 | 17.0 | 0.02 | 0.50 | 0.03 | 42 | 1007.6 |
| 20260507152222 | 47 | 192 | 11.0 | 15.0 | 0.03 | 0.50 | 0.03 | 42 | 1007.5 |
| 20260507151224 | 47 | 225 | 9.0 | 15.0 | 0.03 | 0.50 | 0.03 | 42 | 1007.5 |
| 20260507150220 | 46 | 194 | 9.0 | 15.0 | 0.03 | 0.50 | 0.03 | 42 | 1007.5 |
| 20260507145221 | 46 | 207 | 9.0 | 14.0 | 0.02 | 0.49 | 0.02 | 42 | 1007.5 |
| 20260507144222 | 45 | 231 | 9.0 | 14.0 | 0.02 | 0.49 | 0.02 | 42 | 1007.5 |
| 20260507143231 | 45 | 202 | 11.0 | 17.0 | 0.01 | 0.48 | 0.01 | 43 | 1007.5 |
| 20260507142223 | 44 | 188 | 9.0 | 16.0 | 0.00 | 0.47 | 0.00 | 45 | 1007.5 |
| 20260507141230 | 43 | 180 | 12.0 | 17.0 | 0.00 | 0.47 | 0.00 | 45 | 1007.6 |
| 20260507140215 | 41 | 182 | 10.0 | 15.0 | 0.00 | 0.47 | 0.00 | 48 | 1007.6 |
| 20260507135225 | 40 | 199 | 11.0 | 17.0 | 0.00 | 0.47 | 0.00 | 50 | 1007.6 |
| 20260507134228 | 39 | 214 | 10.0 | 14.0 | 0.00 | 0.47 | 0.00 | 51 | 1007.5 |
| 20260507133213 | 39 | 189 | 9.0 | 14.0 | 0.00 | 0.47 | 0.00 | 51 | 1007.5 |
| 20260507132222 | 39 | 191 | 10.0 | 15.0 | 0.00 | 0.47 | 0.00 | 50 | 1007.5 |
| 20260507131223 | 39 | 236 | 10.0 | 22.0 | 0.00 | 0.47 | 0.00 | 47 | 1007.5 |
| 20260507130227 | 39 | 207 | 11.0 | 15.0 | 0.00 | 0.47 | 0.00 | 46 | 1007.5 |
| 20260507125226 | 39 | 192 | 9.0 | 13.0 | 0.00 | 0.47 | 0.00 | 46 | 1007.4 |
| 20260507124229 | 39 | 215 | 9.0 | 15.0 | 0.00 | 0.47 | 0.00 | 46 | 1006.9 |
| 20260507123230 | 38 | 202 | 8.0 | 14.0 | 0.00 | 0.47 | 0.00 | 48 | 1006.9 |
| 20260507122213 | 38 | 186 | 8.0 | 12.0 | 0.00 | 0.47 | 0.00 | 46 | 1006.8 |
| 20260507121222 | 39 | 182 | 6.0 | 18.0 | 0.00 | 0.47 | 0.00 | 43 | 1006.8 |
| 20260507120229 | 40 | 191 | 12.0 | 16.0 | 0.00 | 0.47 | 0.00 | 43 | 1006.8 |
| 20260507115225 | 39 | 186 | 10.0 | 15.0 | 0.00 | 0.47 | 0.00 | 43 | 1006.8 |
| 20260507114228 | 39 | 207 | 10.0 | 15.0 | 0.00 | 0.47 | 0.00 | 44 | 1006.8 |
| 20260507113217 | 39 | 194 | 9.0 | 17.0 | 0.00 | 0.47 | 0.00 | 44 | 1006.8 |
| 20260507112221 | 40 | 207 | 10.0 | 21.0 | 0.00 | 0.47 | 0.00 | 42 | 1006.6 |
| 20260507111220 | 39 | 213 | 10.0 | 17.0 | 0.00 | 0.47 | 0.00 | 45 | 1006.8 |
| 20260507110225 | 38 | 213 | 9.0 | 19.0 | 0.00 | 0.47 | 0.00 | 45 | 1006.8 |
| 20260507105229 | 38 | 183 | 11.0 | 17.0 | 0.00 | 0.47 | 0.00 | 48 | 1006.8 |
| 20260507104215 | 39 | 202 | 12.0 | 17.0 | 0.00 | 0.47 | 0.00 | 45 | 1006.8 |
| 20260507103220 | 38 | 211 | 9.0 | 14.0 | 0.00 | 0.47 | 0.00 | 45 | 1006.8 |
| 20260507102245 | 38 | 178 | 9.0 | 16.0 | 0.00 | 0.47 | 0.00 | 47 | 1006.8 |
| 20260507101229 | 38 | 182 | 12.0 | 17.0 | 0.00 | 0.47 | 0.00 | 47 | 1006.8 |
| 20260507100252 | 37 | 178 | 12.0 | 18.0 | 0.00 | 0.47 | 0.00 | 48 | 1006.8 |
| 20260507095238 | 38 | 210 | 10.0 | 15.0 | 0.00 | 0.47 | 0.00 | 46 | 1006.9 |
| 20260507094217 | 38 | 216 | 11.0 | 15.0 | 0.00 | 0.47 | 0.00 | 46 | 1007.1 |
| 20260507093224 | 37 | 188 | 12.0 | 18.0 | 0.00 | 0.47 | 0.00 | 50 | 1007.1 |
| 20260507092252 | 37 | 200 | 9.0 | 17.0 | 0.00 | 0.47 | 0.00 | 49 | 1006.9 |
| 20260507091214 | 38 | 176 | 9.0 | 16.0 | 0.00 | 0.47 | 0.00 | 49 | 1006.9 |